This is the latest recevied weather packets stored in our database for station/object KJ7IVE-13. If no packets are shown the sender has not sent any weather packets the latest 1 day(s).
| Time | Temp. | Humidity | Pressure | Rain* | Wind** | Luminosity | Snow |
|---|---|---|---|---|---|---|---|
| 1778019526 | 16.11° C | 10% | 1010.8 hPa | 0 mm | 2.68 m/s, 143° | 552 W/m² | - |
| 1778019223 | 15.56° C | 10% | 1011 hPa | 0 mm | 2.24 m/s, 212° | 529 W/m² | - |
| 1778018920 | 15.56° C | 10% | 1010.7 hPa | 0 mm | 2.68 m/s, 149° | 606 W/m² | - |
| 1778018617 | 15.56° C | 10% | 1010.9 hPa | 0 mm | 3.13 m/s, 192° | 609 W/m² | - |
| 1778018315 | 15.56° C | 10% | 1010.9 hPa | 0 mm | 2.68 m/s, 121° | 249 W/m² | - |
| 1778018013 | 15° C | 10% | 1011.1 hPa | 0 mm | 2.24 m/s, 110° | 626 W/m² | - |
| 1778017711 | 15° C | 10% | 1011.3 hPa | 0 mm | 4.02 m/s, 123° | 711 W/m² | - |
| 1778017408 | 15° C | 10% | 1010.9 hPa | 0 mm | 2.24 m/s, 98° | 655 W/m² | - |
| 1778017105 | 15.56° C | 10% | 1011.1 hPa | 0 mm | 3.13 m/s, 159° | 352 W/m² | - |
| 1778016803 | 14.44° C | 10% | 1011.5 hPa | 0 mm | 2.68 m/s, 115° | 857 W/m² | - |
| 1778016498 | 13.89° C | 10% | 1011.4 hPa | 0 mm | 3.13 m/s, 89° | 655 W/m² | - |
| 1778016196 | 13.89° C | 10% | 1011.4 hPa | 0 mm | 5.36 m/s, 113° | 314 W/m² | - |
| 1778015892 | 13.89° C | 10% | 1011.6 hPa | 0 mm | 2.24 m/s, 107° | 278 W/m² | - |
| 1778015590 | 13.89° C | 10% | 1011.5 hPa | 0 mm | 3.13 m/s, 110° | 206 W/m² | - |
| 1778015286 | 13.33° C | 10% | 1011.4 hPa | 0 mm | 2.68 m/s, 122° | 245 W/m² | - |
| 1778014983 | 13.33° C | 10% | 1011.6 hPa | 0 mm | 3.13 m/s, 83° | 278 W/m² | - |
| 1778014680 | 12.78° C | 10% | 1011.5 hPa | 0 mm | 4.47 m/s, 72° | 312 W/m² | - |
| 1778014378 | 13.33° C | 10% | 1011.6 hPa | 0 mm | 2.24 m/s, 81° | 310 W/m² | - |
| 1778014074 | 12.78° C | 10% | 1012 hPa | 0 mm | 3.58 m/s, 130° | 366 W/m² | - |
| 1778013773 | 12.78° C | 10% | 1011.9 hPa | 0 mm | 3.13 m/s, 111° | 411 W/m² | - |
| 1778013469 | 12.78° C | 10% | 1011.9 hPa | 0 mm | 1.79 m/s, 90° | 569 W/m² | - |
| 1778013166 | 12.22° C | 10% | 1011.9 hPa | 0 mm | 2.24 m/s, 69° | 488 W/m² | - |
| 1778012862 | 11.67° C | 10% | 1011.8 hPa | 1.78 mm | 3.13 m/s, 110° | 308 W/m² | - |
| 1778012558 | 11.67° C | 10% | 1011.8 hPa | 1.78 mm | 3.58 m/s, 121° | 402 W/m² | - |
| 1778012255 | 11.67° C | 10% | 1012 hPa | 0 mm | 4.92 m/s, 71° | 201 W/m² | - |
* Rain latest hour (hover to see other rain measurements)
** Current wind speed in m/s (hover to see current wind gust speed)